Time,TemperatureF,DewpointF,PressureIn,WindDirection,WindDirectionDegrees,WindSpeedMPH,WindSpeedGustMPH,Humidity,HourlyPrecipIn,Conditions,Clouds,dailyrainin,SoftwareType,DateUTC
2013-08-15 00:00:00,69.7,67.6,30.00,NE,45,0.0,0.0,93,0.00,,,0.00,VWS V14.01,2013-08-15 04:00:00,
2013-08-15 00:10:00,69.6,67.2,30.00,NE,45,0.0,0.0,92,0.00,,,0.00,VWS V14.01,2013-08-15 04:10:00,
2013-08-15 00:11:00,69.6,67.0,30.00,NE,34,0.0,0.0,92,0.00,,,0.00,weatherlink.com 1.10,2013-08-15 04:11:00,
2013-08-15 00:20:00,69.4,67.0,30.00,NE,45,0.0,0.0,92,0.00,,,0.00,VWS V14.01,2013-08-15 04:20:00,
2013-08-15 00:26:00,69.3,67.0,30.00,NE,34,0.0,0.0,92,0.00,,,0.00,weatherlink.com 1.10,2013-08-15 04:26:00,
2013-08-15 00:30:00,69.3,66.9,30.00,NE,45,0.0,0.0,92,0.00,,,0.00,VWS V14.01,2013-08-15 04:30:00,
2013-08-15 00:40:00,69.2,66.8,30.00,NE,45,0.0,0.0,92,0.00,,,0.00,VWS V14.01,2013-08-15 04:40:00,
2013-08-15 00:41:00,69.2,67.0,30.00,NE,34,0.0,0.0,92,0.00,,,0.00,weatherlink.com 1.10,2013-08-15 04:41:00,
2013-08-15 00:50:00,69.2,66.8,30.01,NE,45,0.0,0.0,92,0.00,,,0.00,VWS V14.01,2013-08-15 04:50:00,
2013-08-15 00:56:00,69.2,67.0,30.01,NE,34,0.0,0.0,92,0.00,,,0.00,weatherlink.com 1.10,2013-08-15 04:56:00,
2013-08-15 01:00:00,69.2,66.8,30.01,NE,45,0.0,0.0,92,0.00,,,0.00,VWS V14.01,2013-08-15 05:00:00,
2013-08-15 01:10:00,69.1,66.7,30.01,NE,45,0.0,0.0,92,0.00,,,0.00,VWS V14.01,2013-08-15 05:10:00,
2013-08-15 01:11:00,69.1,67.0,30.01,NE,34,0.0,0.0,92,0.00,,,0.00,weatherlink.com 1.10,2013-08-15 05:11:00,
2013-08-15 01:20:00,69.0,66.9,30.01,NE,45,0.0,0.0,93,0.00,,,0.00,VWS V14.01,2013-08-15 05:20:00,
2013-08-15 01:26:00,68.8,67.0,30.01,NE,34,0.0,0.0,93,0.00,,,0.00,weatherlink.com 1.10,2013-08-15 05:26:00,
2013-08-15 01:30:00,68.8,66.7,30.01,NE,45,0.0,0.0,93,0.00,,,0.00,VWS V14.01,2013-08-15 05:30:00,
2013-08-15 01:40:00,68.7,66.6,30.01,NE,45,0.0,0.0,93,0.00,,,0.00,VWS V14.01,2013-08-15 05:40:00,
2013-08-15 01:41:00,68.8,67.0,30.00,NE,34,0.0,0.0,94,0.00,,,0.00,weatherlink.com 1.10,2013-08-15 05:41:00,
2013-08-15 01:50:00,68.8,67.0,30.00,NE,45,0.0,0.0,94,0.00,,,0.00,VWS V14.01,2013-08-15 05:50:00,
2013-08-15 01:56:00,68.8,67.0,30.00,NE,34,0.0,0.0,94,0.00,,,0.00,weatherlink.com 1.10,2013-08-15 05:56:00,
2013-08-15 02:00:00,68.8,67.0,30.00,NE,45,0.0,0.0,94,0.00,,,0.00,VWS V14.01,2013-08-15 06:00:00,
2013-08-15 02:10:00,68.8,66.7,30.00,NE,45,0.0,0.0,93,0.00,,,0.00,VWS V14.01,2013-08-15 06:10:00,
2013-08-15 02:11:00,68.8,67.0,30.00,NE,34,0.0,0.0,93,0.00,,,0.00,weatherlink.com 1.10,2013-08-15 06:11:00,
2013-08-15 02:20:00,68.9,66.8,30.00,NE,45,0.0,0.0,93,0.00,,,0.00,VWS V14.01,2013-08-15 06:20:00,
2013-08-15 02:26:00,69.0,67.0,30.00,NE,34,0.0,0.0,93,0.00,,,0.00,weatherlink.com 1.10,2013-08-15 06:26:00,
2013-08-15 02:30:00,69.1,67.0,30.00,NNE,22,0.0,1.0,93,0.00,,,0.00,VWS V14.01,2013-08-15 06:30:00,
2013-08-15 02:40:00,69.2,67.1,30.00,NNE,22,0.0,1.0,93,0.00,,,0.00,VWS V14.01,2013-08-15 06:40:00,
2013-08-15 02:41:00,69.2,67.0,30.00,NE,37,0.0,0.0,93,0.00,,,0.00,weatherlink.com 1.10,2013-08-15 06:41:00,
2013-08-15 02:50:00,69.2,66.8,30.00,NE,45,0.0,1.0,92,0.00,,,0.00,VWS V14.01,2013-08-15 06:50:00,
2013-08-15 03:00:00,69.2,66.8,30.00,NE,45,0.0,0.0,92,0.00,,,0.00,VWS V14.01,2013-08-15 07:00:00,
2013-08-15 03:10:00,69.3,66.9,30.00,NNE,22,0.0,2.0,92,0.00,,,0.00,VWS V14.01,2013-08-15 07:10:00,
2013-08-15 03:11:00,69.3,67.0,30.00,NNE,32,0.0,2.0,92,0.00,,,0.00,weatherlink.com 1.10,2013-08-15 07:11:00,
2013-08-15 03:20:00,69.3,66.9,30.00,NNE,22,0.0,0.0,92,0.00,,,0.00,VWS V14.01,2013-08-15 07:20:00,
2013-08-15 03:26:00,69.4,67.0,30.00,NE,34,0.0,1.0,92,0.00,,,0.00,weatherlink.com 1.10,2013-08-15 07:26:00,
2013-08-15 03:30:00,69.4,67.0,30.00,NE,45,0.0,1.0,92,0.00,,,0.00,VWS V14.01,2013-08-15 07:30:00,
2013-08-15 03:40:00,69.4,67.0,30.00,NNE,22,0.0,1.0,92,0.00,,,0.00,VWS V14.01,2013-08-15 07:40:00,
2013-08-15 03:41:00,69.4,67.0,30.00,West,266,0.0,1.0,92,0.00,,,0.00,weatherlink.com 1.10,2013-08-15 07:41:00,
2013-08-15 03:50:00,69.4,67.0,29.99,West,270,0.0,1.0,92,0.00,,,0.00,VWS V14.01,2013-08-15 07:50:00,
2013-08-15 03:57:00,69.4,67.0,29.99,ENE,68,0.0,1.0,92,0.00,,,0.00,weatherlink.com 1.10,2013-08-15 07:57:00,
2013-08-15 04:00:00,69.4,67.0,29.99,West,270,0.0,1.0,92,0.00,,,0.00,VWS V14.01,2013-08-15 08:00:00,
2013-08-15 04:10:00,69.3,66.6,29.99,West,270,0.0,0.0,91,0.00,,,0.00,VWS V14.01,2013-08-15 08:10:00,
2013-08-15 04:12:00,69.3,67.0,29.99,East,101,0.0,1.0,92,0.00,,,0.00,weatherlink.com 1.10,2013-08-15 08:12:00,
2013-08-15 04:20:00,69.3,66.6,29.99,West,270,0.0,0.0,91,0.00,,,0.00,VWS V14.01,2013-08-15 08:20:00,
2013-08-15 04:27:00,69.2,67.0,29.99,East,101,0.0,1.0,91,0.00,,,0.00,weatherlink.com 1.10,2013-08-15 08:27:00,
2013-08-15 04:30:00,69.2,66.8,29.99,East,90,0.0,1.0,92,0.00,,,0.00,VWS V14.01,2013-08-15 08:30:00,
2013-08-15 04:40:00,69.1,66.4,29.99,NE,45,0.0,1.0,91,0.00,,,0.00,VWS V14.01,2013-08-15 08:40:00,
2013-08-15 04:42:00,69.1,66.0,29.99,East,81,0.0,0.0,91,0.00,,,0.00,weatherlink.com 1.10,2013-08-15 08:42:00,
2013-08-15 04:50:00,69.0,66.3,29.99,NE,45,0.0,0.0,91,0.00,,,0.00,VWS V14.01,2013-08-15 08:50:00,
2013-08-15 04:57:00,69.0,66.0,29.99,ENE,62,0.0,1.0,90,0.00,,,0.00,weatherlink.com 1.10,2013-08-15 08:57:00,
2013-08-15 05:00:00,69.0,65.9,29.99,ENE,68,0.0,1.0,90,0.00,,,0.00,VWS V14.01,2013-08-15 09:00:00,
2013-08-15 05:10:00,69.0,65.9,29.99,ENE,68,0.0,1.0,90,0.00,,,0.00,VWS V14.01,2013-08-15 09:10:00,
2013-08-15 05:12:00,68.9,66.0,29.99,ENE,65,0.0,0.0,91,0.00,,,0.00,weatherlink.com 1.10,2013-08-15 09:12:00,
2013-08-15 05:20:00,68.9,65.8,30.00,ENE,68,0.0,0.0,90,0.00,,,0.00,VWS V14.01,2013-08-15 09:20:00,
2013-08-15 05:27:00,68.8,66.0,30.00,SW,229,0.0,1.0,90,0.00,,,0.00,weatherlink.com 1.10,2013-08-15 09:27:00,
2013-08-15 05:30:00,68.8,65.8,30.00,SW,225,0.0,1.0,90,0.00,,,0.00,VWS V14.01,2013-08-15 09:30:00,
2013-08-15 05:40:00,68.7,65.7,30.00,SW,225,0.0,1.0,90,0.00,,,0.00,VWS V14.01,2013-08-15 09:40:00,
2013-08-15 05:42:00,68.7,65.0,30.00,SW,229,0.0,0.0,89,0.00,,,0.00,weatherlink.com 1.10,2013-08-15 09:42:00,
2013-08-15 05:50:00,68.6,65.2,30.00,SW,225,0.0,0.0,89,0.00,,,0.00,VWS V14.01,2013-08-15 09:50:00,
2013-08-15 05:57:00,68.6,66.0,30.00,SW,229,0.0,0.0,90,0.00,,,0.00,weatherlink.com 1.10,2013-08-15 09:57:00,
2013-08-15 06:00:00,68.6,65.6,30.00,SW,225,0.0,0.0,90,0.00,,,0.00,VWS V14.01,2013-08-15 10:00:00,
2013-08-15 06:10:00,68.5,65.8,30.00,SW,225,0.0,0.0,91,0.00,,,0.00,VWS V14.01,2013-08-15 10:10:00,
2013-08-15 06:12:00,68.4,66.0,30.00,SW,229,0.0,0.0,91,0.00,,,0.00,weatherlink.com 1.10,2013-08-15 10:12:00,
2013-08-15 06:20:00,68.3,65.3,30.00,SW,225,0.0,0.0,90,0.00,,,0.00,VWS V14.01,2013-08-15 10:20:00,
2013-08-15 06:27:00,68.2,65.0,30.00,SW,229,0.0,0.0,90,0.00,,,0.00,weatherlink.com 1.10,2013-08-15 10:27:00,
2013-08-15 06:30:00,68.1,65.1,30.00,SW,225,0.0,0.0,90,0.00,,,0.00,VWS V14.01,2013-08-15 10:30:00,
2013-08-15 06:40:00,68.1,65.4,30.00,SW,225,0.0,0.0,91,0.00,,,0.00,VWS V14.01,2013-08-15 10:40:00,
2013-08-15 06:42:00,68.1,65.0,30.00,NE,36,0.0,0.0,91,0.00,,,0.00,weatherlink.com 1.10,2013-08-15 10:42:00,
2013-08-15 06:50:00,68.1,65.1,30.00,NE,45,0.0,3.0,90,0.00,,,0.00,VWS V14.01,2013-08-15 10:50:00,
2013-08-15 06:57:00,68.1,65.0,30.00,WSW,250,0.0,1.0,90,0.00,,,0.00,weatherlink.com 1.10,2013-08-15 10:57:00,
2013-08-15 07:00:00,68.1,65.1,30.00,West,270,0.0,3.0,90,0.00,,,0.00,VWS V14.01,2013-08-15 11:00:00,
2013-08-15 07:10:00,68.1,65.1,30.01,WSW,248,0.0,1.0,90,0.00,,,0.00,VWS V14.01,2013-08-15 11:10:00,
2013-08-15 07:12:00,68.1,65.0,30.01,NE,49,0.0,1.0,91,0.00,,,0.00,weatherlink.com 1.10,2013-08-15 11:12:00,
2013-08-15 07:20:00,68.2,65.2,30.01,NE,45,0.0,1.0,90,0.00,,,0.00,VWS V14.01,2013-08-15 11:20:00,
2013-08-15 07:27:00,68.2,65.0,30.02,West,263,0.0,3.0,90,0.00,,,0.00,weatherlink.com 1.10,2013-08-15 11:27:00,
2013-08-15 07:30:00,68.2,65.2,30.02,West,270,0.0,3.0,90,0.00,,,0.00,VWS V14.01,2013-08-15 11:30:00,
2013-08-15 07:40:00,68.3,65.6,30.02,ENE,68,0.0,3.0,91,0.00,,,0.00,VWS V14.01,2013-08-15 11:40:00,
2013-08-15 07:42:00,68.3,66.0,30.02,ENE,68,0.0,1.0,91,0.00,,,0.00,weatherlink.com 1.10,2013-08-15 11:42:00,
2013-08-15 07:50:00,68.3,65.6,30.02,NE,45,0.0,2.0,91,0.00,,,0.00,VWS V14.01,2013-08-15 11:50:00,
2013-08-15 07:57:00,68.3,66.0,30.02,East,82,0.0,1.0,91,0.00,,,0.00,weatherlink.com 1.10,2013-08-15 11:57:00,
2013-08-15 08:00:00,68.4,65.7,30.02,ENE,68,0.0,1.0,91,0.00,,,0.00,VWS V14.01,2013-08-15 12:00:00,
2013-08-15 08:10:00,68.4,65.7,30.03,East,90,0.0,2.0,91,0.00,,,0.00,VWS V14.01,2013-08-15 12:10:00,
2013-08-15 08:12:00,68.4,66.0,30.03,ENE,66,0.0,1.0,91,0.00,,,0.00,weatherlink.com 1.10,2013-08-15 12:12:00,
2013-08-15 08:20:00,68.5,65.5,30.03,NE,45,0.0,1.0,90,0.00,,,0.00,VWS V14.01,2013-08-15 12:20:00,
2013-08-15 08:27:00,68.5,66.0,30.03,North,1,0.0,2.0,90,0.00,,,0.00,weatherlink.com 1.10,2013-08-15 12:27:00,
2013-08-15 08:30:00,68.4,65.4,30.03,East,90,0.0,3.0,90,0.00,,,0.00,VWS V14.01,2013-08-15 12:30:00,
2013-08-15 08:40:00,68.5,65.1,30.03,ENE,68,0.0,1.0,89,0.00,,,0.00,VWS V14.01,2013-08-15 12:40:00,
2013-08-15 08:42:00,68.5,65.0,30.03,WSW,238,1.0,1.0,89,0.00,,,0.00,weatherlink.com 1.10,2013-08-15 12:42:00,
2013-08-15 08:50:00,68.6,65.2,30.03,WSW,248,0.0,2.0,89,0.00,,,0.00,VWS V14.01,2013-08-15 12:50:00,
2013-08-15 08:57:00,68.7,65.0,30.03,NE,44,1.0,3.0,89,0.00,,,0.00,weatherlink.com 1.10,2013-08-15 12:57:00,
2013-08-15 09:00:00,68.7,65.3,30.03,ENE,68,0.0,3.0,89,0.00,,,0.00,VWS V14.01,2013-08-15 13:00:00,
2013-08-15 09:10:00,69.0,65.3,30.04,ENE,68,0.0,3.0,88,0.00,,,0.00,VWS V14.01,2013-08-15 13:10:00,
2013-08-15 09:12:00,69.0,65.0,30.04,NE,39,0.0,3.0,88,0.00,,,0.00,weatherlink.com 1.10,2013-08-15 13:12:00,
2013-08-15 09:20:00,69.0,65.3,30.04,NE,45,0.0,1.0,88,0.00,,,0.00,VWS V14.01,2013-08-15 13:20:00,
2013-08-15 09:27:00,69.1,65.0,30.04,NE,53,0.0,1.0,87,0.00,,,0.00,weatherlink.com 1.10,2013-08-15 13:27:00,
2013-08-15 09:30:00,69.2,64.8,30.04,East,90,0.0,1.0,86,0.00,,,0.00,VWS V14.01,2013-08-15 13:30:00,
2013-08-15 09:40:00,69.3,65.3,30.05,NE,45,0.0,1.0,87,0.00,,,0.00,VWS V14.01,2013-08-15 13:40:00,
2013-08-15 09:42:00,69.3,65.0,30.05,NE,47,1.0,1.0,86,0.00,,,0.00,weatherlink.com 1.10,2013-08-15 13:42:00,
2013-08-15 09:50:00,69.4,65.0,30.05,ENE,68,0.0,2.0,86,0.00,,,0.00,VWS V14.01,2013-08-15 13:50:00,
2013-08-15 09:57:00,69.4,65.0,30.05,ENE,62,0.0,3.0,85,0.00,,,0.00,weatherlink.com 1.10,2013-08-15 13:57:00,
2013-08-15 10:00:00,69.3,64.6,30.05,ENE,68,0.0,4.0,85,0.00,,,0.00,VWS V14.01,2013-08-15 14:00:00,
2013-08-15 10:10:00,69.8,64.4,30.05,NE,45,0.0,2.0,83,0.00,,,0.00,VWS V14.01,2013-08-15 14:10:00,
2013-08-15 10:12:00,69.9,65.0,30.05,West,266,1.0,1.0,83,0.00,,,0.00,weatherlink.com 1.10,2013-08-15 14:12:00,
2013-08-15 10:20:00,70.2,64.8,30.05,East,90,0.0,3.0,83,0.00,,,0.00,VWS V14.01,2013-08-15 14:20:00,
2013-08-15 10:27:00,69.9,64.0,30.06,ESE,110,1.0,1.0,81,0.00,,,0.00,weatherlink.com 1.10,2013-08-15 14:27:00,
2013-08-15 10:30:00,69.9,63.8,30.06,NE,45,0.0,2.0,81,0.00,,,0.00,VWS V14.01,2013-08-15 14:30:00,
2013-08-15 10:40:00,69.6,63.5,30.06,NNE,22,0.0,6.0,81,0.00,,,0.00,VWS V14.01,2013-08-15 14:40:00,
2013-08-15 10:42:00,69.6,63.0,30.06,East,98,0.0,6.0,80,0.00,,,0.00,weatherlink.com 1.10,2013-08-15 14:42:00,
2013-08-15 10:50:00,69.6,63.5,30.06,East,90,0.0,6.0,81,0.00,,,0.00,VWS V14.01,2013-08-15 14:50:00,
2013-08-15 10:57:00,69.5,63.0,30.07,East,79,0.0,4.0,81,0.00,,,0.00,weatherlink.com 1.10,2013-08-15 14:57:00,
2013-08-15 11:00:00,69.5,63.8,30.06,ENE,68,0.0,4.0,82,0.00,,,0.00,VWS V14.01,2013-08-15 15:00:00,
2013-08-15 11:10:00,69.7,63.6,30.07,NE,45,0.0,2.0,81,0.00,,,0.00,VWS V14.01,2013-08-15 15:10:00,
2013-08-15 11:12:00,69.8,64.0,30.07,East,84,0.0,2.0,81,0.00,,,0.00,weatherlink.com 1.10,2013-08-15 15:12:00,
2013-08-15 11:20:00,70.1,64.4,30.07,ENE,68,0.0,3.0,82,0.00,,,0.00,VWS V14.01,2013-08-15 15:20:00,
2013-08-15 11:27:00,70.9,64.0,30.07,NNE,33,0.0,2.0,79,0.00,,,0.00,weatherlink.com 1.10,2013-08-15 15:27:00,
2013-08-15 11:30:00,70.9,64.1,30.07,NNE,22,0.0,2.0,79,0.00,,,0.00,VWS V14.01,2013-08-15 15:30:00,
2013-08-15 11:40:00,71.0,63.1,30.07,ENE,68,0.0,3.0,76,0.00,,,0.00,VWS V14.01,2013-08-15 15:40:00,
2013-08-15 11:42:00,70.9,63.0,30.07,ESE,122,0.0,2.0,76,0.00,,,0.00,weatherlink.com 1.10,2013-08-15 15:42:00,
2013-08-15 11:50:00,71.0,63.4,30.07,NNE,22,0.0,4.0,77,0.00,,,0.00,VWS V14.01,2013-08-15 15:50:00,
2013-08-15 11:57:00,71.1,63.0,30.07,SSW,204,0.0,3.0,76,0.00,,,0.00,weatherlink.com 1.10,2013-08-15 15:57:00,
2013-08-15 12:00:00,71.1,63.2,30.07,SW,225,0.0,3.0,76,0.00,,,0.00,VWS V14.01,2013-08-15 16:00:00,
2013-08-15 12:10:00,71.6,63.6,30.07,East,90,0.0,4.0,76,0.00,,,0.00,VWS V14.01,2013-08-15 16:10:00,
2013-08-15 12:12:00,71.5,64.0,30.07,NE,41,0.0,3.0,76,0.00,,,0.00,weatherlink.com 1.10,2013-08-15 16:12:00,
2013-08-15 12:20:00,71.6,62.9,30.07,NE,45,0.0,3.0,74,0.00,,,0.00,VWS V14.01,2013-08-15 16:20:00,
2013-08-15 12:27:00,72.0,63.0,30.07,WSW,252,0.0,1.0,73,0.00,,,0.00,weatherlink.com 1.10,2013-08-15 16:27:00,
2013-08-15 12:30:00,72.0,62.9,30.07,ENE,68,0.0,1.0,73,0.00,,,0.00,VWS V14.01,2013-08-15 16:30:00,
2013-08-15 12:40:00,72.2,62.3,30.06,NNE,22,0.0,3.0,71,0.00,,,0.00,VWS V14.01,2013-08-15 16:40:00,
2013-08-15 12:42:00,72.0,63.0,30.07,NNE,29,0.0,6.0,72,0.00,,,0.00,weatherlink.com 1.10,2013-08-15 16:42:00,
2013-08-15 12:50:00,72.0,62.1,30.06,NE,45,1.0,6.0,71,0.00,,,0.00,VWS V14.01,2013-08-15 16:50:00,
2013-08-15 12:57:00,72.1,62.0,30.06,ENE,66,1.0,3.0,70,0.00,,,0.00,weatherlink.com 1.10,2013-08-15 16:57:00,
2013-08-15 13:00:00,72.1,61.4,30.06,NE,45,0.0,3.0,69,0.00,,,0.00,VWS V14.01,2013-08-15 17:00:00,
2013-08-15 13:10:00,72.1,62.6,30.06,NE,45,0.0,2.0,72,0.00,,,0.00,VWS V14.01,2013-08-15 17:10:00,
2013-08-15 13:12:00,72.0,61.0,30.06,East,86,0.0,6.0,68,0.00,,,0.00,weatherlink.com 1.10,2013-08-15 17:12:00,
2013-08-15 13:20:00,71.9,62.0,30.06,NE,45,1.0,6.0,71,0.00,,,0.00,VWS V14.01,2013-08-15 17:20:00,
2013-08-15 13:27:00,71.3,62.0,30.06,NNE,21,0.0,3.0,72,0.00,,,0.00,weatherlink.com 1.10,2013-08-15 17:27:00,
2013-08-15 13:30:00,71.2,60.9,30.06,NNE,22,0.0,3.0,70,0.00,,,0.00,VWS V14.01,2013-08-15 17:30:00,
2013-08-15 13:40:00,70.9,61.8,30.06,East,90,0.0,2.0,73,0.00,,,0.00,VWS V14.01,2013-08-15 17:40:00,
2013-08-15 13:42:00,70.8,61.0,30.05,East,96,0.0,3.0,71,0.00,,,0.00,weatherlink.com 1.10,2013-08-15 17:42:00,
2013-08-15 13:50:00,70.9,61.8,30.05,NE,45,0.0,3.0,73,0.00,,,0.00,VWS V14.01,2013-08-15 17:50:00,
2013-08-15 13:57:00,71.4,63.0,30.05,ESE,110,0.0,4.0,74,0.00,,,0.00,weatherlink.com 1.10,2013-08-15 17:57:00,
2013-08-15 14:00:00,71.4,62.3,30.05,ENE,68,0.0,4.0,73,0.00,,,0.00,VWS V14.01,2013-08-15 18:00:00,
2013-08-15 14:10:00,72.3,63.2,30.05,NE,45,0.0,2.0,73,0.00,,,0.00,VWS V14.01,2013-08-15 18:10:00,
2013-08-15 14:12:00,72.3,63.0,30.05,East,79,0.0,2.0,72,0.00,,,0.00,weatherlink.com 1.10,2013-08-15 18:12:00,
2013-08-15 14:20:00,72.3,62.8,30.04,NNE,22,0.0,3.0,72,0.00,,,0.00,VWS V14.01,2013-08-15 18:20:00,
2013-08-15 14:27:00,72.8,63.0,30.04,ENE,65,2.0,2.0,72,0.00,,,0.00,weatherlink.com 1.10,2013-08-15 18:27:00,
2013-08-15 14:30:00,72.8,63.3,30.04,ENE,68,0.0,2.0,72,0.00,,,0.00,VWS V14.01,2013-08-15 18:30:00,
2013-08-15 14:40:00,73.2,62.8,30.03,ENE,68,1.0,3.0,70,0.00,,,0.00,VWS V14.01,2013-08-15 18:40:00,
2013-08-15 14:43:00,73.5,63.0,30.03,North,360,0.0,3.0,70,0.00,,,0.00,weatherlink.com 1.10,2013-08-15 18:43:00,
2013-08-15 14:50:00,74.1,63.7,30.03,NE,45,0.0,3.0,70,0.00,,,0.00,VWS V14.01,2013-08-15 18:50:00,
2013-08-15 15:00:00,74.3,62.6,30.03,NE,45,0.0,2.0,67,0.00,,,0.00,VWS V14.01,2013-08-15 19:00:00,
2013-08-15 15:10:00,74.2,63.4,30.03,NNE,22,0.0,3.0,69,0.00,,,0.00,VWS V14.01,2013-08-15 19:10:00,
2013-08-15 15:13:00,74.2,62.0,30.03,WSW,248,0.0,1.0,66,0.00,,,0.00,weatherlink.com 1.10,2013-08-15 19:13:00,
2013-08-15 15:20:00,74.4,62.7,30.03,East,90,0.0,1.0,67,0.00,,,0.00,VWS V14.01,2013-08-15 19:20:00,
2013-08-15 15:28:00,74.0,64.0,30.04,SE,124,0.0,2.0,70,0.00,,,0.00,weatherlink.com 1.10,2013-08-15 19:28:00,
2013-08-15 15:30:00,74.0,63.6,30.04,NE,45,0.0,2.0,70,0.00,,,0.00,VWS V14.01,2013-08-15 19:30:00,
2013-08-15 15:40:00,73.6,61.5,30.04,ENE,68,0.0,2.0,66,0.00,,,0.00,VWS V14.01,2013-08-15 19:40:00,
2013-08-15 15:43:00,73.3,63.0,30.03,NE,34,0.0,4.0,70,0.00,,,0.00,weatherlink.com 1.10,2013-08-15 19:43:00,
2013-08-15 15:50:00,73.3,64.1,30.03,NNE,22,0.0,4.0,73,0.00,,,0.00,VWS V14.01,2013-08-15 19:50:00,
2013-08-15 15:58:00,73.3,65.0,30.03,NE,41,0.0,2.0,74,0.00,,,0.00,weatherlink.com 1.10,2013-08-15 19:58:00,
2013-08-15 16:00:00,73.3,64.5,30.03,NE,45,0.0,2.0,74,0.00,,,0.00,VWS V14.01,2013-08-15 20:00:00,
2013-08-15 16:10:00,73.6,65.2,30.03,NE,45,0.0,2.0,75,0.00,,,0.00,VWS V14.01,2013-08-15 20:10:00,
2013-08-15 16:13:00,73.6,64.0,30.03,East,89,1.0,1.0,72,0.00,,,0.00,weatherlink.com 1.10,2013-08-15 20:13:00,
2013-08-15 16:20:00,73.7,62.9,30.03,NNE,22,0.0,2.0,69,0.00,,,0.00,VWS V14.01,2013-08-15 20:20:00,
2013-08-15 16:28:00,74.2,64.0,30.03,SW,222,0.0,1.0,70,0.00,,,0.00,weatherlink.com 1.10,2013-08-15 20:28:00,
2013-08-15 16:30:00,74.2,63.8,30.03,SW,225,0.0,1.0,70,0.00,,,0.00,VWS V14.01,2013-08-15 20:30:00,
2013-08-15 16:40:00,74.1,64.9,30.03,NE,45,0.0,1.0,73,0.00,,,0.00,VWS V14.01,2013-08-15 20:40:00,
2013-08-15 16:50:00,74.2,64.2,30.03,NE,45,0.0,1.0,71,0.00,,,0.00,VWS V14.01,2013-08-15 20:50:00,
2013-08-15 16:58:00,74.3,64.0,30.03,ENE,72,0.0,1.0,71,0.00,,,0.00,weatherlink.com 1.10,2013-08-15 20:58:00,
2013-08-15 17:00:00,74.3,63.5,30.03,ENE,68,0.0,1.0,69,0.00,,,0.00,VWS V14.01,2013-08-15 21:00:00,
2013-08-15 17:10:00,74.2,63.8,30.03,NE,45,0.0,3.0,70,0.00,,,0.00,VWS V14.01,2013-08-15 21:10:00,
2013-08-15 17:13:00,74.4,64.0,30.03,ESE,103,0.0,2.0,69,0.00,,,0.00,weatherlink.com 1.10,2013-08-15 21:13:00,
2013-08-15 17:20:00,74.4,63.2,30.03,East,90,0.0,1.0,68,0.00,,,0.00,VWS V14.01,2013-08-15 21:20:00,
2013-08-15 17:28:00,74.7,63.0,30.03,NE,40,0.0,2.0,66,0.00,,,0.00,weatherlink.com 1.10,2013-08-15 21:28:00,
2013-08-15 17:30:00,74.7,63.9,30.03,NE,45,0.0,3.0,69,0.00,,,0.00,VWS V14.01,2013-08-15 21:30:00,
2013-08-15 17:40:00,73.7,62.1,30.03,NE,45,0.0,1.0,67,0.00,,,0.00,VWS V14.01,2013-08-15 21:40:00,
2013-08-15 17:50:00,72.8,62.5,30.03,NE,45,0.0,1.0,70,0.00,,,0.00,VWS V14.01,2013-08-15 21:50:00,
2013-08-15 17:58:00,72.4,62.0,30.03,NE,44,0.0,2.0,70,0.00,,,0.00,weatherlink.com 1.10,2013-08-15 21:58:00,
2013-08-15 18:00:00,72.4,62.5,30.03,NE,45,0.0,2.0,71,0.00,,,0.00,VWS V14.01,2013-08-15 22:00:00,
2013-08-15 18:10:00,71.8,61.9,30.03,NE,45,0.0,2.0,71,0.00,,,0.00,VWS V14.01,2013-08-15 22:10:00,
2013-08-15 18:13:00,71.6,63.0,30.03,NE,50,0.0,1.0,74,0.00,,,0.00,weatherlink.com 1.10,2013-08-15 22:13:00,
2013-08-15 18:20:00,71.2,62.1,30.03,NE,45,0.0,2.0,73,0.00,,,0.00,VWS V14.01,2013-08-15 22:20:00,
2013-08-15 18:28:00,70.8,62.0,30.03,NE,44,0.0,2.0,74,0.00,,,0.00,weatherlink.com 1.10,2013-08-15 22:28:00,
2013-08-15 18:30:00,70.8,62.1,30.03,NE,45,0.0,2.0,74,0.00,,,0.00,VWS V14.01,2013-08-15 22:30:00,
2013-08-15 18:40:00,70.3,63.5,30.04,NE,45,0.0,1.0,79,0.00,,,0.00,VWS V14.01,2013-08-15 22:40:00,
2013-08-15 18:43:00,70.1,63.0,30.03,NE,43,0.0,1.0,79,0.00,,,0.00,weatherlink.com 1.10,2013-08-15 22:43:00,
2013-08-15 18:50:00,69.8,63.4,30.04,NE,45,0.0,0.0,80,0.00,,,0.00,VWS V14.01,2013-08-15 22:50:00,
2013-08-15 18:58:00,69.5,62.0,30.04,SW,236,0.0,1.0,77,0.00,,,0.00,weatherlink.com 1.10,2013-08-15 22:58:00,
2013-08-15 19:00:00,69.5,62.0,30.04,SW,225,0.0,1.0,77,0.00,,,0.00,VWS V14.01,2013-08-15 23:00:00,
2013-08-15 19:10:00,69.6,62.8,30.04,ENE,68,0.0,1.0,79,0.00,,,0.00,VWS V14.01,2013-08-15 23:10:00,
2013-08-15 19:13:00,69.5,62.0,30.04,East,81,0.0,1.0,77,0.00,,,0.00,weatherlink.com 1.10,2013-08-15 23:13:00,
2013-08-15 19:20:00,69.6,62.8,30.04,East,90,0.0,1.0,79,0.00,,,0.00,VWS V14.01,2013-08-15 23:20:00,
2013-08-15 19:30:00,69.5,62.7,30.04,East,90,0.0,0.0,79,0.00,,,0.00,VWS V14.01,2013-08-15 23:30:00,
2013-08-15 19:40:00,69.3,62.5,30.04,NNE,22,0.0,1.0,79,0.00,,,0.00,VWS V14.01,2013-08-15 23:40:00,
2013-08-15 19:43:00,69.2,63.0,30.04,NNE,26,0.0,1.0,80,0.00,,,0.00,weatherlink.com 1.10,2013-08-15 23:43:00,
2013-08-15 19:50:00,69.1,62.0,30.04,NNE,22,0.0,0.0,78,0.00,,,0.00,VWS V14.01,2013-08-15 23:50:00,
2013-08-15 19:58:00,68.9,62.0,30.05,NE,43,0.0,1.0,79,0.00,,,0.00,weatherlink.com 1.10,2013-08-15 23:58:00,
2013-08-15 20:00:00,68.9,62.1,30.05,NE,45,0.0,1.0,79,0.00,,,0.00,VWS V14.01,2013-08-16 00:00:00,
2013-08-15 20:10:00,68.7,61.9,30.05,NNE,22,0.0,1.0,79,0.00,,,0.00,VWS V14.01,2013-08-16 00:10:00,
2013-08-15 20:13:00,68.5,61.0,30.05,East,82,0.0,1.0,78,0.00,,,0.00,weatherlink.com 1.10,2013-08-16 00:13:00,
2013-08-15 20:20:00,68.6,61.8,30.05,NE,45,0.0,1.0,79,0.00,,,0.00,VWS V14.01,2013-08-16 00:20:00,
2013-08-15 20:28:00,68.6,61.0,30.05,ENE,68,0.0,1.0,77,0.00,,,0.00,weatherlink.com 1.10,2013-08-16 00:28:00,
2013-08-15 20:30:00,68.5,61.0,30.05,ENE,68,0.0,1.0,77,0.00,,,0.00,VWS V14.01,2013-08-16 00:30:00,
2013-08-15 20:40:00,68.4,60.9,30.06,ENE,68,0.0,1.0,77,0.00,,,0.00,VWS V14.01,2013-08-16 00:40:00,
2013-08-15 20:43:00,68.4,61.0,30.06,NE,56,0.0,1.0,77,0.00,,,0.00,weatherlink.com 1.10,2013-08-16 00:43:00,
2013-08-15 20:50:00,68.4,61.3,30.06,ENE,68,0.0,1.0,78,0.00,,,0.00,VWS V14.01,2013-08-16 00:50:00,
2013-08-15 20:58:00,68.3,61.0,30.06,NNE,29,0.0,2.0,78,0.00,,,0.00,weatherlink.com 1.10,2013-08-16 00:58:00,
2013-08-15 21:00:00,68.3,61.5,30.06,West,270,0.0,1.0,79,0.00,,,0.00,VWS V14.01,2013-08-16 01:00:00,
2013-08-15 21:10:00,68.2,61.1,30.06,NNE,22,0.0,1.0,78,0.00,,,0.00,VWS V14.01,2013-08-16 01:10:00,
2013-08-15 21:13:00,68.2,61.0,30.06,NNW,335,0.0,0.0,78,0.00,,,0.00,weatherlink.com 1.10,2013-08-16 01:13:00,
2013-08-15 21:20:00,68.1,61.0,30.06,NNE,22,0.0,0.0,78,0.00,,,0.00,VWS V14.01,2013-08-16 01:20:00,
2013-08-15 21:28:00,68.0,61.0,30.06,NE,56,0.0,1.0,79,0.00,,,0.00,weatherlink.com 1.10,2013-08-16 01:28:00,
2013-08-15 21:30:00,68.0,61.6,30.06,North,0,0.0,1.0,80,0.00,,,0.00,VWS V14.01,2013-08-16 01:30:00,
2013-08-15 21:40:00,68.0,62.0,30.06,NE,45,0.0,2.0,81,0.00,,,0.00,VWS V14.01,2013-08-16 01:40:00,
2013-08-15 21:43:00,67.9,62.0,30.06,SSE,153,0.0,2.0,82,0.00,,,0.00,weatherlink.com 1.10,2013-08-16 01:43:00,
2013-08-15 21:50:00,67.7,61.7,30.06,NE,45,0.0,0.0,81,0.00,,,0.00,VWS V14.01,2013-08-16 01:50:00,
2013-08-15 21:58:00,67.7,61.0,30.07,NNW,329,0.0,1.0,80,0.00,,,0.00,weatherlink.com 1.10,2013-08-16 01:58:00,
2013-08-15 22:00:00,67.7,61.3,30.07,NNE,22,0.0,1.0,80,0.00,,,0.00,VWS V14.01,2013-08-16 02:00:00,
2013-08-15 22:10:00,67.7,62.0,30.07,NNE,22,0.0,1.0,82,0.00,,,0.00,VWS V14.01,2013-08-16 02:10:00,
2013-08-15 22:13:00,67.5,62.0,30.07,NNE,31,0.0,0.0,82,0.00,,,0.00,weatherlink.com 1.10,2013-08-16 02:13:00,
2013-08-15 22:20:00,67.5,61.8,30.08,NNE,22,0.0,0.0,82,0.00,,,0.00,VWS V14.01,2013-08-16 02:20:00,
2013-08-15 22:28:00,67.3,62.0,30.07,NNE,31,0.0,0.0,83,0.00,,,0.00,weatherlink.com 1.10,2013-08-16 02:28:00,
2013-08-15 22:30:00,67.3,62.0,30.07,NNE,22,0.0,0.0,83,0.00,,,0.00,VWS V14.01,2013-08-16 02:30:00,
2013-08-15 22:43:00,67.3,62.0,30.07,NE,53,0.0,0.0,82,0.00,,,0.00,weatherlink.com 1.10,2013-08-16 02:43:00,
2013-08-15 22:50:00,67.3,61.6,30.08,NNE,22,0.0,0.0,82,0.00,,,0.00,VWS V14.01,2013-08-16 02:50:00,
2013-08-15 22:58:00,67.4,62.0,30.07,NE,52,0.0,0.0,84,0.00,,,0.00,weatherlink.com 1.10,2013-08-16 02:58:00,
2013-08-15 23:00:00,67.4,62.4,30.07,NNE,22,0.0,0.0,84,0.00,,,0.00,VWS V14.01,2013-08-16 03:00:00,
2013-08-15 23:10:00,67.5,62.2,30.07,WSW,248,0.0,1.0,83,0.00,,,0.00,VWS V14.01,2013-08-16 03:10:00,
2013-08-15 23:13:00,67.5,62.0,30.07,WSW,249,0.0,1.0,83,0.00,,,0.00,weatherlink.com 1.10,2013-08-16 03:13:00,
2013-08-15 23:28:00,67.4,62.0,30.07,WSW,243,0.0,1.0,84,0.00,,,0.00,weatherlink.com 1.10,2013-08-16 03:28:00,
2013-08-15 23:30:00,67.4,62.4,30.07,WSW,248,0.0,1.0,84,0.00,,,0.00,VWS V14.01,2013-08-16 03:30:00,
2013-08-15 23:43:00,67.4,62.0,30.08,WSW,255,0.0,3.0,82,0.00,,,0.00,weatherlink.com 1.10,2013-08-16 03:43:00,
2013-08-15 23:58:00,67.4,62.0,30.08,WSW,244,0.0,1.0,84,0.00,,,0.00,weatherlink.com 1.10,2013-08-16 03:58:00,